• Processing (Info)

  • MPEC 2014-C50 : 2014 CT13

    The following Minor Planet Electronic Circular may be linked-to from your own Web pages, but must not otherwise be redistributed electronically.

    A form allowing access to any MPEC is at the bottom of this page.


    Read MPEC 2014-C49 Read MPEC 2014-C51


    M.P.E.C. 2014-C50                                Issued 2014 Feb. 12, 18:52 UT
    
         The Minor Planet Electronic Circulars contain information on unusual
             minor planets and routine data on comets.  They are published
       on behalf of Commission 20 of the International Astronomical Union by the
              Minor Planet Center, Smithsonian Astrophysical Observatory,
                              Cambridge, MA 02138, U.S.A.
    
                 Prepared using the Tamkin Foundation Computer Network
    
                                  MPC@CFA.HARVARD.EDU
                URL https://www.minorplanetcenter.net/    ISSN 1523-6714
    
                                       2014 CT13
    
    Observations:
         K14C13T* C2014 02 11.45684 11 36 47.11 +16 28 19.5          19.2 VqEC050G96
         K14C13T  C2014 02 11.46193 11 36 46.24 +16 26 39.2          19.4 VqEC050G96
         K14C13T  C2014 02 11.46701 11 36 45.34 +16 24 59.4          20.1 VqEC050G96
         K14C13T  C2014 02 11.47209 11 36 44.50 +16 23 19.4          19.2 VqEC050G96
         K14C13T  C2014 02 11.48503 11 36 42.32 +16 19 04.5          19.6 VqEC050G96
         K14C13T  C2014 02 11.48541 11 36 42.23 +16 18 57.2          20.1 VqEC050G96
         K14C13T  C2014 02 11.48579 11 36 42.16 +16 18 50.0          19.3 VqEC050G96
         K14C13T  C2014 02 11.48618 11 36 42.09 +16 18 41.7          19.8 VqEC050G96
         K14C13T  C2014 02 11.48656 11 36 42.01 +16 18 34.2          19.9 VqEC050G96
         K14C13T  C2014 02 11.52396 11 36 35.88 +16 06 18.0          19.4 VqEC050G96
         K14C13T  C2014 02 11.52446 11 36 35.79 +16 06 08.3          19.8 VqEC050G96
         K14C13T  C2014 02 11.52495 11 36 35.75 +16 05 59.1          19.6 VqEC050G96
         K14C13T  C2014 02 11.52544 11 36 35.64 +16 05 48.9          19.9 VqEC050G96
         K14C13T  C2014 02 11.52594 11 36 35.56 +16 05 39.0          20.0 VqEC050G96
         K14C13T  C2014 02 12.33647 11 35 03.05 +11 45 21.0          19.3 VqEC050G96
         K14C13T  C2014 02 12.33708 11 35 02.91 +11 45 09.9          19.6 VqEC050G96
         K14C13T  C2014 02 12.33770 11 35 02.80 +11 44 58.2          19.8 VqEC050G96
         K14C13T  C2014 02 12.33831 11 35 02.68 +11 44 45.6          19.9 VqEC050G96
         K14C13T  C2014 02 12.33893 11 35 02.59 +11 44 34.7          19.9 VqEC050G96
         K14C13T BC2014 02 12.34546411 34 58.68 +11 42 17.5          19.3 VrEC050H21
         K14C13T BC2014 02 12.34970011 34 58.02 +11 40 56.8          19.4 VrEC050H21
         K14C13T BC2014 02 12.35410511 34 57.25 +11 39 33.9          19.4 VrEC050H21
    
    Observer details:
    G96 Mt. Lemmon Survey.  Observer R. E. Hill.  Measurers E. J. Christensen,
        A. R. Gibbs, A. D. Grauer, R. E. Hill, J. A. Johnson, R. A. Kowalski,
        S. M. Larson, F. C. Shelly.  1.5-m reflector + CCD.
    H21 Astronomical Research Observatory, Westfield.  Observer R. Holmes.
        Measurers S. Foglia, L. Buzzi, H. Devore, T. Linder, T. Lister,
        T. Vorobjov.  0.61-m f/4.0 astrograph + CCD.
    
    Orbital elements:
    2014 CT13                                                Earth MOID = 0.0602 AU
    Epoch 2013 Nov. 4.0 TT = JDT 2456600.5                  MPC
    M 337.86883              (2000.0)            P               Q
    n   0.25250184     Peri.  163.20394     -0.65000581     -0.74509673
    a   2.4790941      Node   326.88585     +0.66200492     -0.45865167
    e   0.5822387      Incl.   15.87203     +0.37315136     -0.48422051
    P   3.90           H   24.2           G   0.15           U   8
    Residuals in seconds of arc
    140211 G96  0.2+  0.1+    140211 G96  0.4-  0.3-    140212 G96  0.2-  0.5+
    140211 G96  0.3+  0.0     140211 G96  0.1-  0.1-    140212 G96  0.5-  0.6-
    140211 G96  0.2-  0.1+    140211 G96  0.2-  0.0     140212 G96  0.3-  0.2+
    140211 G96  0.2+  0.1+    140211 G96  0.3+  0.5+    140212 H21  0.1+  0.1-
    140211 G96  0.4+  0.2-    140211 G96  0.1-  0.1-    140212 H21  0.6+  0.5-
    140211 G96  0.0   0.0     140211 G96  0.1-  0.1-    140212 H21  0.1-  0.1+
    140211 G96  0.1-  0.3+    140212 G96  0.5+  0.0
    140211 G96  0.2-  0.3-    140212 G96  0.1-  0.4+
    
    Ephemeris:
    2014 CT13                a,e,i = 2.48, 0.58, 16                  q = 1.0357
    Date    TT    R. A. (2000) Decl.     Delta      r     Elong.  Phase     V
    2014 01 13    21 10 25.7 +87 15 34   0.1888  1.0602   109.0    61.3    22.9
    ...
    2014 01 28    12 28 09.5 +75 08 07   0.1073  1.0362   115.9    58.7    21.5
    ...
    2014 02 05    11 53 15.3 +50 19 07   0.07409 1.0380   133.1    43.9    20.3
    ...
    2014 02 11    11 37 48.6 +18 59 17   0.06705 1.0459   150.8    27.4    19.7
    2014 02 12    11 35 41.8 +13 33 26   0.06808 1.0478   152.2    26.0    19.7
    2014 02 13    11 33 40.8 +08 20 11   0.06974 1.0498   152.9    25.4    19.7
    ...
    2014 02 19    11 23 14.0 -15 56 56   0.09003 1.0651   147.0    30.4    20.4
    ...
    2014 02 27    11 12 27.7 -32 00 46   0.1323  1.0932   138.7    36.7    21.5
    ...
    2014 03 14    11 00 21.1 -41 25 33   0.2271  1.1662   135.2    36.9    22.8
    
    A. U. Tomatic                (C) Copyright 2014 MPC           M.P.E.C. 2014-C50
    

    Read MPEC 2014-C49 Read MPEC 2014-C51


    MPEC number:

    Enter an MPEC number in one of the following forms:

    • 1997-B01 (the full form)
    • J97B01 (the packed version of the full form)
    • B01 (the abbreviated form)